,,PA_Meas_PMT16A,,PR_Meas_QMR101_102,,RH_Meas_QMH101,,SR_Meas_QMS101,,TA_Meas_QMH101,,GenWind,,GenWind,
time,status,PA,status,PR,status,RH,status,SR,status,TA,status,DirAvg,status,SpdAvg,
2014-01-06, 00:00:04,VALID,917.568,VALID,0,VALID,97.2367,VALID,0,VALID,19.1597,VALID,128,VALID,0,
2014-01-06, 00:01:04,VALID,917.555,VALID,0,VALID,97.2443,VALID,0,VALID,19.1388,VALID,128,VALID,0.107031,
2014-01-06, 00:02:04,VALID,917.566,VALID,0,VALID,97.2367,VALID,0,VALID,19.1193,VALID,128,VALID,0.384766,
2014-01-06, 00:03:04,VALID,917.547,VALID,0,VALID,97.2367,VALID,0,VALID,19.0803,VALID,128,VALID,0.443359,
2014-01-06, 00:04:04,VALID,917.556,VALID,0,VALID,97.2367,VALID,0,VALID,19.0817,VALID,129,VALID,0.494141,
2014-01-06, 00:05:04,VALID,917.539,VALID,0,VALID,97.2519,VALID,0,VALID,19.0218,VALID,119,VALID,0.725,
2014-01-06, 00:06:04,VALID,917.483,VALID,0,VALID,97.2672,VALID,0,VALID,18.9633,VALID,95,VALID,0.955078,
2014-01-06, 00:07:04,VALID,917.499,VALID,0,VALID,97.2748,VALID,0,VALID,18.9647,VALID,89,VALID,0.8875,
2014-01-06, 00:08:04,VALID,917.471,VALID,0,VALID,97.2672,VALID,0,VALID,18.9243,VALID,89,VALID,0.9,
2014-01-06, 00:09:04,VALID,917.444,VALID,0,VALID,97.2595,VALID,0,VALID,18.9243,VALID,89,VALID,0.487891,
2014-01-06, 00:10:04,VALID,917.418,VALID,0,VALID,97.2595,VALID,0,VALID,18.9438,VALID,89,VALID,0.433984,
2014-01-06, 00:11:04,VALID,917.407,VALID,0,VALID,97.2824,VALID,0,VALID,18.9048,VALID,89,VALID,0.665625,
2014-01-06, 00:12:04,VALID,917.347,VALID,0,VALID,97.2672,VALID,0,VALID,18.9048,VALID,89,VALID,0.798437,
2014-01-06, 00:13:04,VALID,917.307,VALID,0,VALID,97.2824,VALID,0,VALID,18.9243,VALID,89,VALID,0.697656,
2014-01-06, 00:14:04,VALID,917.266,VALID,0,VALID,97.29,VALID,0,VALID,18.9243,VALID,91,VALID,0.641406,
2014-01-06, 00:15:04,VALID,917.251,VALID,0,VALID,97.2672,VALID,0,VALID,18.9257,VALID,94,VALID,0.351563,
2014-01-06, 00:16:04,VALID,917.253,VALID,0,VALID,97.2748,VALID,0,VALID,18.9243,VALID,105,VALID,0.414063,
2014-01-06, 00:17:04,VALID,917.238,VALID,0,VALID,97.2748,VALID,0,VALID,18.9243,VALID,105,VALID,0,
2014-01-06, 00:18:04,VALID,917.252,VALID,0,VALID,97.29,VALID,0,VALID,18.9438,VALID,105,VALID,0.102344,
2014-01-06, 00:19:04,VALID,917.209,VALID,0,VALID,97.2824,VALID,0,VALID,18.9438,VALID,105,VALID,0.339453,
2014-01-06, 00:20:04,VALID,917.202,VALID,0,VALID,97.29,VALID,0,VALID,18.9438,VALID,105,VALID,0.167969,
2014-01-06, 00:21:04,VALID,917.201,VALID,0,VALID,97.2748,VALID,0,VALID,18.9633,VALID,105,VALID,0,
2014-01-06, 00:22:04,VALID,917.2,VALID,0,VALID,97.2672,VALID,0,VALID,18.9633,VALID,105,VALID,0,
2014-01-06, 00:23:04,VALID,917.213,VALID,0,VALID,97.2748,VALID,0,VALID,18.9633,VALID,105,VALID,0,
2014-01-06, 00:24:04,VALID,917.188,VALID,0,VALID,97.29,VALID,0,VALID,18.9828,VALID,105,VALID,0,
2014-01-06, 00:25:04,VALID,917.195,VALID,0,VALID,97.29,VALID,0,VALID,18.9842,VALID,105,VALID,0.222656,
2014-01-06, 00:26:04,VALID,917.197,VALID,0,VALID,97.2595,VALID,0,VALID,18.9828,VALID,105,VALID,0.358203,
2014-01-06, 00:27:04,VALID,917.193,VALID,0,VALID,97.2672,VALID,0,VALID,18.9842,VALID,105,VALID,0.311328,
2014-01-06, 00:28:04,VALID,917.193,VALID,0,VALID,97.2672,VALID,0,VALID,18.9842,VALID,105,VALID,0.141016,
2014-01-06, 00:29:04,VALID,917.188,VALID,0,VALID,97.2672,VALID,0,VALID,18.9842,VALID,105,VALID,0,
2014-01-06, 00:30:04,VALID,917.174,VALID,0,VALID,97.2672,VALID,0,VALID,19.0023,VALID,105,VALID,0,
2014-01-06, 00:31:04,VALID,917.166,VALID,0,VALID,97.2824,VALID,0,VALID,19.0023,VALID,105,VALID,0,
2014-01-06, 00:32:04,VALID,917.121,VALID,0,VALID,97.2748,VALID,0,VALID,18.9828,VALID,105,VALID,0,
2014-01-06, 00:33:04,VALID,917.13,VALID,0,VALID,97.29,VALID,0,VALID,18.9633,VALID,105,VALID,0,
2014-01-06, 00:34:04,VALID,917.107,VALID,0,VALID,97.2672,VALID,0,VALID,18.9633,VALID,105,VALID,0,
2014-01-06, 00:35:04,VALID,917.085,VALID,0,VALID,97.29,VALID,0,VALID,18.9452,VALID,105,VALID,0.335547,
2014-01-06, 00:36:04,VALID,917.069,VALID,0,VALID,97.2977,VALID,0,VALID,18.8853,VALID,105,VALID,0.335156,
2014-01-06, 00:37:04,VALID,917.066,VALID,0,VALID,97.2977,VALID,0,VALID,18.8463,VALID,105,VALID,0.256641,
2014-01-06, 00:38:04,VALID,917.077,VALID,0,VALID,97.3053,VALID,0,VALID,18.8268,VALID,105,VALID,0.232031,
2014-01-06, 00:39:04,VALID,917.057,VALID,0,VALID,97.3053,VALID,0,VALID,18.8268,VALID,105,VALID,0.373437,
2014-01-06, 00:40:04,VALID,917.095,VALID,0,VALID,97.3129,VALID,0,VALID,18.8672,VALID,105,VALID,0.333203,
2014-01-06, 00:41:04,VALID,917.068,VALID,0,VALID,97.29,VALID,0,VALID,18.8477,VALID,105,VALID,0.394531,
2014-01-06, 00:42:04,VALID,917.055,VALID,0,VALID,97.2977,VALID,0,VALID,18.8268,VALID,105,VALID,0.507031,
2014-01-06, 00:43:04,VALID,917.072,VALID,0,VALID,97.3129,VALID,0,VALID,18.8073,VALID,131,VALID,0.8375,
2014-01-06, 00:44:04,VALID,917.05,VALID,0,VALID,97.3053,VALID,0,VALID,18.8477,VALID,131,VALID,0.612109,
2014-01-06, 00:45:04,VALID,917.063,VALID,0,VALID,97.3053,VALID,0,VALID,18.8282,VALID,131,VALID,0.616797,
2014-01-06, 00:46:04,VALID,917.055,VALID,0,VALID,97.3205,VALID,0,VALID,18.8282,VALID,131,VALID,0.815234,
2014-01-06, 00:47:04,VALID,917.05,VALID,0,VALID,97.2977,VALID,0,VALID,18.8073,VALID,150,VALID,0.792969,
2014-01-06, 00:48:04,VALID,917.042,VALID,0,VALID,97.3129,VALID,0,VALID,18.8282,VALID,150,VALID,0.623828,
2014-01-06, 00:49:04,VALID,917.027,VALID,0,VALID,97.3129,VALID,0,VALID,18.8268,VALID,150,VALID,0.888672,
2014-01-06, 00:50:04,VALID,917.054,VALID,0,VALID,97.2824,VALID,0,VALID,18.8477,VALID,150,VALID,0.566016,
2014-01-06, 00:51:04,VALID,917.051,VALID,0,VALID,97.3053,VALID,0,VALID,18.8477,VALID,150,VALID,0.566016,
2014-01-06, 00:52:04,VALID,917.06,VALID,0,VALID,97.2977,VALID,0,VALID,18.8672,VALID,150,VALID,0.230078,
2014-01-06, 00:53:04,VALID,917.029,VALID,0,VALID,97.3129,VALID,0,VALID,18.8672,VALID,150,VALID,0.533203,
2014-01-06, 00:54:04,VALID,917.039,VALID,0,VALID,97.2977,VALID,0,VALID,18.8672,VALID,150,VALID,0.351563,
2014-01-06, 00:55:04,VALID,917.046,VALID,0,VALID,97.3205,VALID,0,VALID,18.8672,VALID,150,VALID,0.414063,
2014-01-06, 00:56:04,VALID,917.016,VALID,0,VALID,97.3053,VALID,0,VALID,18.8463,VALID,150,VALID,0.523828,
2014-01-06, 00:57:04,VALID,917.019,VALID,0,VALID,97.3053,VALID,0,VALID,18.8477,VALID,150,VALID,0.793359,
2014-01-06, 00:58:04,VALID,916.97,VALID,0,VALID,97.3205,VALID,0,VALID,18.8282,VALID,150,VALID,0.827734,
2014-01-06, 00:59:04,VALID,916.948,VALID,0,VALID,97.3129,VALID,0,VALID,18.8477,VALID,150,VALID,0.796094,
2014-01-06, 01:00:04,VALID,916.918,VALID,0,VALID,97.3053,VALID,0,VALID,18.8073,VALID,150,VALID,0.473047,
2014-01-06, 01:01:04,VALID,916.903,VALID,0,VALID,97.3205,VALID,0,VALID,18.8087,VALID,150,VALID,0.966797,
2014-01-06, 01:02:04,VALID,916.868,VALID,0,VALID,97.3205,VALID,0,VALID,18.7892,VALID,150,VALID,0.441406,
2014-01-06, 01:03:04,VALID,916.845,VALID,0,VALID,97.3281,VALID,0,VALID,18.7683,VALID,150,VALID,0.628125,
2014-01-06, 01:04:04,VALID,916.83,VALID,0,VALID,97.3358,VALID,0,VALID,18.7697,VALID,139,VALID,0.776953,
2014-01-06, 01:05:04,VALID,916.756,VALID,0,VALID,97.3358,VALID,0,VALID,18.7488,VALID,137,VALID,0.407813,
2014-01-06, 01:06:04,VALID,916.771,VALID,0,VALID,97.3358,VALID,0,VALID,18.7098,VALID,137,VALID,0.583984,
2014-01-06, 01:07:04,VALID,916.761,VALID,0,VALID,97.3434,VALID,0,VALID,18.6918,VALID,137,VALID,0.603125,
2014-01-06, 01:08:04,VALID,916.728,VALID,0,VALID,97.3358,VALID,0,VALID,18.6723,VALID,137,VALID,0.502734,
2014-01-06, 01:09:04,VALID,916.728,VALID,0,VALID,97.3358,VALID,0,VALID,18.6528,VALID,137,VALID,0.771094,
2014-01-06, 01:10:04,VALID,916.701,VALID,0,VALID,97.3358,VALID,0,VALID,18.6723,VALID,137,VALID,0.817969,
2014-01-06, 01:11:04,VALID,916.721,VALID,0,VALID,97.3434,VALID,0,VALID,18.6723,VALID,132,VALID,1.01875,
2014-01-06, 01:12:04,VALID,916.699,VALID,0,VALID,97.351,VALID,0,VALID,18.6723,VALID,131,VALID,0.805859,
2014-01-06, 01:13:04,VALID,916.702,VALID,0,VALID,97.3434,VALID,0,VALID,18.6513,VALID,136,VALID,0.996094,
2014-01-06, 01:14:04,VALID,916.679,VALID,0,VALID,97.3358,VALID,0,VALID,18.6723,VALID,138,VALID,0.929297,
2014-01-06, 01:15:04,VALID,916.712,VALID,0,VALID,97.351,VALID,0,VALID,18.6528,VALID,124,VALID,1.28789,
2014-01-06, 01:16:04,VALID,916.664,VALID,0,VALID,97.3586,VALID,0,VALID,18.6528,VALID,128,VALID,1.41484,
2014-01-06, 01:17:04,VALID,916.685,VALID,0,VALID,97.3358,VALID,0,VALID,18.6528,VALID,132,VALID,1.28516,
2014-01-06, 01:18:04,VALID,916.664,VALID,0,VALID,97.3663,VALID,0,VALID,18.6513,VALID,128,VALID,1.23086,
2014-01-06, 01:19:04,VALID,916.674,VALID,0,VALID,97.351,VALID,0,VALID,18.6319,VALID,118,VALID,1.09609,
2014-01-06, 01:20:04,VALID,916.628,VALID,0,VALID,97.351,VALID,0,VALID,18.5929,VALID,118,VALID,1.29062,
2014-01-06, 01:21:04,VALID,916.66,VALID,0,VALID,97.3586,VALID,0.107441,VALID,18.6124,VALID,126,VALID,1.02852,
2014-01-06, 01:22:04,VALID,916.643,VALID,0,VALID,97.3663,VALID,0.107441,VALID,18.6124,VALID,124,VALID,1.01016,
2014-01-06, 01:23:04,VALID,916.618,VALID,0,VALID,97.3434,VALID,0.107441,VALID,18.6124,VALID,116,VALID,0.753516,
2014-01-06, 01:24:04,VALID,916.623,VALID,0,VALID,97.3358,VALID,0,VALID,18.6513,VALID,124,VALID,1.06328,
2014-01-06, 01:25:04,VALID,916.658,VALID,0,VALID,97.3663,VALID,0.107441,VALID,18.6319,VALID,115,VALID,1.33633,
2014-01-06, 01:26:04,VALID,916.664,VALID,0,VALID,97.3358,VALID,0,VALID,18.6513,VALID,104,VALID,1.10273,
2014-01-06, 01:27:04,VALID,916.635,VALID,0,VALID,97.3434,VALID,0,VALID,18.6513,VALID,118,VALID,1.16445,
2014-01-06, 01:28:04,VALID,916.648,VALID,0,VALID,97.351,VALID,0,VALID,18.6708,VALID,110,VALID,0.871094,
2014-01-06, 01:29:04,VALID,916.649,VALID,0,VALID,97.3586,VALID,0.107441,VALID,18.6513,VALID,106,VALID,0.753125,
2014-01-06, 01:30:04,VALID,916.641,VALID,0,VALID,97.351,VALID,0,VALID,18.6918,VALID,118,VALID,1.05469,
2014-01-06, 01:31:04,VALID,916.629,VALID,0,VALID,97.3434,VALID,0,VALID,18.6708,VALID,122,VALID,0.848828,
2014-01-06, 01:32:04,VALID,916.59,VALID,0,VALID,97.3586,VALID,0,VALID,18.6708,VALID,119,VALID,0.515625,
2014-01-06, 01:33:04,VALID,916.558,VALID,0,VALID,97.3358,VALID,0,VALID,18.6513,VALID,122,VALID,0.794922,
2014-01-06, 01:34:04,VALID,916.563,VALID,0,VALID,97.351,VALID,0.107441,VALID,18.6708,VALID,122,VALID,0.969922,
2014-01-06, 01:35:04,VALID,916.518,VALID,0,VALID,97.3434,VALID,0,VALID,18.6708,VALID,122,VALID,0.901563,
2014-01-06, 01:36:04,VALID,916.529,VALID,0,VALID,97.351,VALID,0,VALID,18.6708,VALID,121,VALID,0.702344,
2014-01-06, 01:37:04,VALID,916.488,VALID,0,VALID,97.3586,VALID,0,VALID,18.6513,VALID,128,VALID,0.6,
2014-01-06, 01:38:04,VALID,916.489,VALID,0,VALID,97.3586,VALID,0,VALID,18.6513,VALID,127,VALID,0.887109,
2014-01-06, 01:39:04,VALID,916.483,VALID,0,VALID,97.3434,VALID,0,VALID,18.6319,VALID,121,VALID,0.792188,
2014-01-06, 01:40:04,VALID,916.475,VALID,0,VALID,97.3663,VALID,0,VALID,18.6319,VALID,121,VALID,0.883594,
2014-01-06, 01:41:04,VALID,916.45,VALID,0,VALID,97.3586,VALID,0,VALID,18.6319,VALID,121,VALID,0.944141,
2014-01-06, 01:42:04,VALID,916.41,VALID,0,VALID,97.3586,VALID,0,VALID,18.6319,VALID,121,VALID,0.900391,
2014-01-06, 01:43:04,VALID,916.394,VALID,0,VALID,97.3663,VALID,0,VALID,18.5914,VALID,121,VALID,1.16211,
2014-01-06, 01:44:04,VALID,916.377,VALID,0,VALID,97.3739,VALID,0.107441,VALID,18.6319,VALID,126,VALID,1.06836,
2014-01-06, 01:45:04,VALID,916.33,VALID,0,VALID,97.3891,VALID,0,VALID,18.6124,VALID,127,VALID,0.963281,
2014-01-06, 01:46:04,VALID,916.336,VALID,0,VALID,97.3739,VALID,0,VALID,18.5929,VALID,127,VALID,1.00625,
2014-01-06, 01:47:04,VALID,916.318,VALID,0,VALID,97.3815,VALID,0,VALID,18.6138,VALID,127,VALID,0.820313,
2014-01-06, 01:48:04,VALID,916.342,VALID,0,VALID,97.3891,VALID,0,VALID,18.5914,VALID,127,VALID,0.817578,
2014-01-06, 01:49:04,VALID,916.334,VALID,0,VALID,97.3739,VALID,0,VALID,18.572,VALID,126,VALID,1.0918,
2014-01-06, 01:50:04,VALID,916.303,VALID,0,VALID,97.3739,VALID,0,VALID,18.5734,VALID,124,VALID,0.748047,
2014-01-06, 01:51:04,VALID,916.325,VALID,0,VALID,97.3663,VALID,0,VALID,18.5344,VALID,123,VALID,0.713281,
2014-01-06, 01:52:04,VALID,916.3,VALID,0,VALID,97.3739,VALID,0,VALID,18.5344,VALID,119,VALID,0.799219,
2014-01-06, 01:53:04,VALID,916.311,VALID,0,VALID,97.3968,VALID,0,VALID,18.5149,VALID,100,VALID,0.967969,
2014-01-06, 01:54:04,VALID,916.318,VALID,0,VALID,97.3815,VALID,0,VALID,18.4954,VALID,97,VALID,0.805469,
2014-01-06, 01:55:04,VALID,916.27,VALID,0,VALID,97.3891,VALID,0,VALID,18.4954,VALID,88,VALID,1.01289,
2014-01-06, 01:56:04,VALID,916.244,VALID,0,VALID,97.3891,VALID,0,VALID,18.5149,VALID,80,VALID,1.23281,
2014-01-06, 01:57:04,VALID,916.228,VALID,0,VALID,97.3815,VALID,0,VALID,18.5149,VALID,88,VALID,0.847656,
2014-01-06, 01:58:04,VALID,916.221,VALID,0,VALID,97.3891,VALID,0,VALID,18.5344,VALID,101,VALID,0.824219,
2014-01-06, 01:59:04,VALID,916.202,VALID,0,VALID,97.3815,VALID,0,VALID,18.5344,VALID,115,VALID,0.921094,
2014-01-06, 02:00:04,VALID,916.182,VALID,0,VALID,97.3815,VALID,0,VALID,18.5344,VALID,119,VALID,0.960547,
2014-01-06, 02:01:04,VALID,916.135,VALID,0,VALID,97.3739,VALID,0,VALID,18.5539,VALID,124,VALID,0.864453,
2014-01-06, 02:02:04,VALID,916.135,VALID,0,VALID,97.3968,VALID,0,VALID,18.5943,VALID,126,VALID,0.951953,
2014-01-06, 02:03:04,VALID,916.121,VALID,0,VALID,97.3891,VALID,0,VALID,18.572,VALID,126,VALID,0.949219,
2014-01-06, 02:04:04,VALID,916.115,VALID,0,VALID,97.3891,VALID,0,VALID,18.5734,VALID,126,VALID,1.05508,
2014-01-06, 02:05:04,VALID,916.098,VALID,0,VALID,97.3815,VALID,0,VALID,18.5734,VALID,126,VALID,0.551172,
2014-01-06, 02:06:04,VALID,916.09,VALID,0,VALID,97.3968,VALID,0,VALID,18.5929,VALID,125,VALID,0.871875,
2014-01-06, 02:07:04,VALID,916.1,VALID,0,VALID,97.3891,VALID,0,VALID,18.6124,VALID,146,VALID,0.761328,
2014-01-06, 02:08:04,VALID,916.076,VALID,0,VALID,97.3815,VALID,0,VALID,18.5929,VALID,145,VALID,0.984375,
2014-01-06, 02:09:04,VALID,916.061,VALID,0,VALID,97.3815,VALID,0,VALID,18.5929,VALID,145,VALID,0.528516,
2014-01-06, 02:10:04,VALID,916.089,VALID,0,VALID,97.3968,VALID,0,VALID,18.6124,VALID,145,VALID,0.547656,
2014-01-06, 02:11:04,VALID,916.075,VALID,0,VALID,97.3815,VALID,0,VALID,18.6109,VALID,147,VALID,0.434766,
2014-01-06, 02:12:04,VALID,916.051,VALID,0,VALID,97.3739,VALID,0.107441,VALID,18.6304,VALID,147,VALID,0.457422,
2014-01-06, 02:13:04,VALID,916.076,VALID,0,VALID,97.3968,VALID,0.107441,VALID,18.6513,VALID,146,VALID,0.376953,
2014-01-06, 02:14:04,VALID,916.09,VALID,0,VALID,97.3739,VALID,0,VALID,18.6319,VALID,141,VALID,0.433984,
2014-01-06, 02:15:04,VALID,916.08,VALID,0,VALID,97.3968,VALID,0,VALID,18.572,VALID,141,VALID,0.570703,
2014-01-06, 02:16:04,VALID,916.071,VALID,0,VALID,97.4044,VALID,0,VALID,18.5929,VALID,131,VALID,0.682422,
2014-01-06, 02:17:04,VALID,916.083,VALID,0,VALID,97.412,VALID,0,VALID,18.5929,VALID,129,VALID,0.720312,
2014-01-06, 02:18:04,VALID,916.088,VALID,0,VALID,97.3968,VALID,0,VALID,18.5734,VALID,129,VALID,0.305859,
2014-01-06, 02:19:04,VALID,916.054,VALID,0,VALID,97.3891,VALID,0,VALID,18.5525,VALID,129,VALID,0.369531,
2014-01-06, 02:20:04,VALID,916.035,VALID,0,VALID,97.4196,VALID,0,VALID,18.533,VALID,129,VALID,0.309375,
2014-01-06, 02:21:04,VALID,916.02,VALID,0,VALID,97.4196,VALID,0.107441,VALID,18.5344,VALID,129,VALID,0.299219,
2014-01-06, 02:22:04,VALID,916.032,VALID,0,VALID,97.412,VALID,0.107441,VALID,18.5135,VALID,129,VALID,0.4375,
2014-01-06, 02:23:04,VALID,916.039,VALID,0,VALID,97.412,VALID,0,VALID,18.494,VALID,129,VALID,0.522656,
2014-01-06, 02:24:04,VALID,916.023,VALID,0,VALID,97.4196,VALID,0,VALID,18.4954,VALID,129,VALID,0.566016,
2014-01-06, 02:25:04,VALID,916.016,VALID,0,VALID,97.4273,VALID,0.107441,VALID,18.5149,VALID,129,VALID,0.798437,
2014-01-06, 02:26:04,VALID,915.99,VALID,0,VALID,97.4044,VALID,0.107441,VALID,18.494,VALID,132,VALID,0.785156,
2014-01-06, 02:27:04,VALID,915.995,VALID,0,VALID,97.4196,VALID,0,VALID,18.533,VALID,136,VALID,1.14766,
2014-01-06, 02:28:04,VALID,915.976,VALID,0,VALID,97.4196,VALID,0.107441,VALID,18.533,VALID,136,VALID,0.716797,
2014-01-06, 02:29:04,VALID,915.975,VALID,0,VALID,97.4044,VALID,0,VALID,18.5734,VALID,145,VALID,1.18164,
2014-01-06, 02:30:04,VALID,915.945,VALID,0,VALID,97.4044,VALID,0.107441,VALID,18.5525,VALID,148,VALID,1.00664,
2014-01-06, 02:31:04,VALID,915.958,VALID,0,VALID,97.3891,VALID,0,VALID,18.5525,VALID,147,VALID,1.57148,
2014-01-06, 02:32:04,VALID,915.982,VALID,0,VALID,97.3968,VALID,0.107441,VALID,18.5914,VALID,146,VALID,1.26211,
2014-01-06, 02:33:04,VALID,915.945,VALID,0,VALID,97.4273,VALID,0,VALID,18.5734,VALID,142,VALID,0.985547,
2014-01-06, 02:34:04,VALID,915.971,VALID,0,VALID,97.4044,VALID,0,VALID,18.5929,VALID,126,VALID,1.15742,
2014-01-06, 02:35:04,VALID,915.941,VALID,0,VALID,97.3968,VALID,0,VALID,18.5734,VALID,126,VALID,0.8625,
2014-01-06, 02:36:04,VALID,915.949,VALID,0,VALID,97.4196,VALID,0,VALID,18.5748,VALID,126,VALID,0.678516,
2014-01-06, 02:37:04,VALID,915.939,VALID,0,VALID,97.4196,VALID,0,VALID,18.5358,VALID,126,VALID,0.905078,
2014-01-06, 02:38:04,VALID,915.909,VALID,0,VALID,97.412,VALID,0,VALID,18.5163,VALID,126,VALID,0.634375,
2014-01-06, 02:39:04,VALID,915.908,VALID,0,VALID,97.4196,VALID,0,VALID,18.4968,VALID,120,VALID,1.43828,
2014-01-06, 02:40:04,VALID,915.863,VALID,0,VALID,97.4196,VALID,0,VALID,18.5163,VALID,121,VALID,1.6625,
2014-01-06, 02:41:04,VALID,915.871,VALID,0,VALID,97.3968,VALID,0,VALID,18.5358,VALID,133,VALID,1.57578,
2014-01-06, 02:42:04,VALID,915.832,VALID,0,VALID,97.4044,VALID,0,VALID,18.5734,VALID,127,VALID,1.22695,
2014-01-06, 02:43:04,VALID,915.849,VALID,0,VALID,97.4044,VALID,0,VALID,18.5748,VALID,141,VALID,0.778906,
2014-01-06, 02:44:04,VALID,915.822,VALID,0,VALID,97.4273,VALID,0,VALID,18.5748,VALID,128,VALID,0.945703,
2014-01-06, 02:45:04,VALID,915.825,VALID,0,VALID,97.412,VALID,0,VALID,18.5748,VALID,138,VALID,0.972266,
2014-01-06, 02:46:04,VALID,915.802,VALID,0,VALID,97.412,VALID,0,VALID,18.5344,VALID,141,VALID,0.411328,
2014-01-06, 02:47:04,VALID,915.781,VALID,0,VALID,97.3968,VALID,0,VALID,18.5748,VALID,151,VALID,1.14805,
2014-01-06, 02:48:04,VALID,915.773,VALID,0,VALID,97.4044,VALID,0.107441,VALID,18.5734,VALID,150,VALID,0.635547,
2014-01-06, 02:49:04,VALID,915.719,VALID,0,VALID,97.4196,VALID,0,VALID,18.5734,VALID,150,VALID,0.348047,
2014-01-06, 02:50:04,VALID,915.696,VALID,0,VALID,97.412,VALID,0.107441,VALID,18.5539,VALID,150,VALID,0.125781,
2014-01-06, 02:51:04,VALID,915.713,VALID,0,VALID,97.412,VALID,0,VALID,18.533,VALID,150,VALID,0.422656,
2014-01-06, 02:52:04,VALID,915.695,VALID,0,VALID,97.4044,VALID,0,VALID,18.5135,VALID,152,VALID,0.478516,
2014-01-06, 02:53:04,VALID,915.674,VALID,0,VALID,97.4196,VALID,0,VALID,18.5344,VALID,152,VALID,0.471094,
2014-01-06, 02:54:04,VALID,915.689,VALID,0,VALID,97.4501,VALID,0,VALID,18.494,VALID,152,VALID,0.0992187,
2014-01-06, 02:55:04,VALID,915.646,VALID,0,VALID,97.4273,VALID,0,VALID,18.4745,VALID,138,VALID,0.299219,
2014-01-06, 02:56:04,VALID,915.663,VALID,0,VALID,97.4273,VALID,0,VALID,18.4564,VALID,138,VALID,0.136328,
2014-01-06, 02:57:04,VALID,915.629,VALID,0,VALID,97.4425,VALID,0,VALID,18.4369,VALID,138,VALID,0.213281,
2014-01-06, 02:58:04,VALID,915.611,VALID,0,VALID,97.4425,VALID,0,VALID,18.4369,VALID,138,VALID,0.353125,
2014-01-06, 02:59:04,VALID,915.573,VALID,0,VALID,97.4273,VALID,0,VALID,18.4369,VALID,138,VALID,0.0351563,
2014-01-06, 03:00:04,VALID,915.599,VALID,0,VALID,97.4273,VALID,0,VALID,18.4578,VALID,138,VALID,0.210156,
2014-01-06, 03:01:04,VALID,915.598,VALID,0,VALID,97.4273,VALID,0,VALID,18.4578,VALID,138,VALID,0,
2014-01-06, 03:02:04,VALID,915.596,VALID,0,VALID,97.4273,VALID,0,VALID,18.4773,VALID,138,VALID,0.182812,
2014-01-06, 03:03:04,VALID,915.589,VALID,0,VALID,97.4273,VALID,0,VALID,18.4759,VALID,138,VALID,0.249219,
2014-01-06, 03:04:04,VALID,915.599,VALID,0,VALID,97.412,VALID,0,VALID,18.4745,VALID,138,VALID,0,
2014-01-06, 03:05:04,VALID,915.623,VALID,0,VALID,97.4273,VALID,0,VALID,18.4954,VALID,138,VALID,0.0167969,
2014-01-06, 03:06:04,VALID,915.614,VALID,0,VALID,97.4349,VALID,0,VALID,18.4564,VALID,138,VALID,0.262891,
2014-01-06, 03:07:04,VALID,915.624,VALID,0,VALID,97.4196,VALID,0,VALID,18.4174,VALID,138,VALID,0.289453,
2014-01-06, 03:08:04,VALID,915.629,VALID,0,VALID,97.4349,VALID,0,VALID,18.3979,VALID,138,VALID,0.176172,
2014-01-06, 03:09:04,VALID,915.624,VALID,0,VALID,97.4501,VALID,0,VALID,18.3589,VALID,138,VALID,0.151953,
2014-01-06, 03:10:04,VALID,915.599,VALID,0,VALID,97.4577,VALID,0,VALID,18.3004,VALID,138,VALID,0.00429688,
2014-01-06, 03:11:04,VALID,915.612,VALID,0,VALID,97.4501,VALID,0,VALID,18.3004,VALID,138,VALID,0,
2014-01-06, 03:12:04,VALID,915.564,VALID,0,VALID,97.4501,VALID,0,VALID,18.2406,VALID,138,VALID,0,
2014-01-06, 03:13:04,VALID,915.566,VALID,0,VALID,97.473,VALID,0,VALID,18.242,VALID,138,VALID,0,
2014-01-06, 03:14:04,VALID,915.547,VALID,0,VALID,97.4577,VALID,0,VALID,18.2211,VALID,138,VALID,0,
2014-01-06, 03:15:04,VALID,915.522,VALID,0,VALID,97.4501,VALID,0,VALID,18.242,VALID,138,VALID,0,
2014-01-06, 03:16:04,VALID,915.549,VALID,0,VALID,97.4577,VALID,0,VALID,18.242,VALID,138,VALID,0,
2014-01-06, 03:17:04,VALID,915.545,VALID,0,VALID,97.4654,VALID,0,VALID,18.203,VALID,138,VALID,0,
2014-01-06, 03:18:04,VALID,915.547,VALID,0,VALID,97.4425,VALID,0,VALID,18.2225,VALID,138,VALID,0,
2014-01-06, 03:19:05,VALID,915.573,VALID,0,VALID,97.4349,VALID,0,VALID,18.242,VALID,138,VALID,0,
2014-01-06, 03:20:05,VALID,915.581,VALID,0,VALID,97.4501,VALID,0,VALID,18.2615,VALID,138,VALID,0,
2014-01-06, 03:21:05,VALID,915.603,VALID,0,VALID,97.4577,VALID,0,VALID,18.2809,VALID,138,VALID,0,
2014-01-06, 03:22:05,VALID,915.593,VALID,0,VALID,97.4196,VALID,0,VALID,18.2809,VALID,138,VALID,0,
2014-01-06, 03:23:05,VALID,915.618,VALID,0,VALID,97.4501,VALID,0,VALID,18.2809,VALID,138,VALID,0,
2014-01-06, 03:24:05,VALID,915.606,VALID,0,VALID,97.4577,VALID,0,VALID,18.242,VALID,138,VALID,0,
2014-01-06, 03:25:05,VALID,915.616,VALID,0,VALID,97.4577,VALID,0.107441,VALID,18.2615,VALID,138,VALID,0,
2014-01-06, 03:26:05,VALID,915.618,VALID,0,VALID,97.4501,VALID,0,VALID,18.2406,VALID,138,VALID,0,
2014-01-06, 03:27:05,VALID,915.619,VALID,0,VALID,97.4577,VALID,0,VALID,18.2225,VALID,138,VALID,0,
2014-01-06, 03:28:05,VALID,915.601,VALID,0,VALID,97.4654,VALID,0,VALID,18.1835,VALID,138,VALID,0,
2014-01-06, 03:29:05,VALID,915.616,VALID,0,VALID,97.4577,VALID,0,VALID,18.164,VALID,138,VALID,0,
2014-01-06, 03:30:05,VALID,915.601,VALID,0,VALID,97.4654,VALID,0,VALID,18.1445,VALID,138,VALID,0,
2014-01-06, 03:31:05,VALID,915.598,VALID,0,VALID,97.4806,VALID,0,VALID,18.086,VALID,138,VALID,0,
2014-01-06, 03:32:05,VALID,915.611,VALID,0.2,VALID,97.4959,VALID,0,VALID,18.0275,VALID,138,VALID,0.227734,
2014-01-06, 03:33:05,VALID,915.625,VALID,0,VALID,97.4882,VALID,0,VALID,17.9886,VALID,138,VALID,0.704297,
2014-01-06, 03:34:05,VALID,915.62,VALID,0,VALID,97.4882,VALID,0,VALID,18.008,VALID,138,VALID,0.536719,
2014-01-06, 03:35:05,VALID,915.613,VALID,0,VALID,97.4806,VALID,0,VALID,17.9482,VALID,138,VALID,0.5375,
2014-01-06, 03:36:05,VALID,915.586,VALID,0,VALID,97.5035,VALID,0.107441,VALID,17.9287,VALID,138,VALID,0.369531,
2014-01-06, 03:37:05,VALID,915.645,VALID,0,VALID,97.5111,VALID,0,VALID,17.9301,VALID,138,VALID,0,
2014-01-06, 03:38:05,VALID,915.614,VALID,0,VALID,97.5111,VALID,0,VALID,17.9106,VALID,138,VALID,0.01875,
2014-01-06, 03:39:05,VALID,915.612,VALID,0,VALID,97.5187,VALID,0,VALID,17.9106,VALID,138,VALID,0.370703,
2014-01-06, 03:40:05,VALID,915.64,VALID,0,VALID,97.4882,VALID,0,VALID,17.9092,VALID,138,VALID,0.479688,
2014-01-06, 03:41:05,VALID,915.651,VALID,0,VALID,97.4882,VALID,0,VALID,17.9691,VALID,135,VALID,0.660156,
2014-01-06, 03:42:05,VALID,915.633,VALID,0,VALID,97.4882,VALID,0,VALID,18.008,VALID,134,VALID,0.837891,
2014-01-06, 03:43:05,VALID,915.649,VALID,0,VALID,97.4806,VALID,0,VALID,18.008,VALID,99,VALID,0.978906,
2014-01-06, 03:44:05,VALID,915.637,VALID,0,VALID,97.5035,VALID,0,VALID,17.9691,VALID,89,VALID,1.29102,
2014-01-06, 03:45:05,VALID,915.641,VALID,0,VALID,97.5035,VALID,0,VALID,17.9704,VALID,75,VALID,1.26523,
2014-01-06, 03:46:05,VALID,915.627,VALID,0,VALID,97.4806,VALID,0,VALID,18.0289,VALID,76,VALID,1.17734,